"Date","subscriberCount","subscriberChange","viewCount","viewChange","videoCount","videoChange","commentCount","commentChange"
"2020-10-15 00:02:03","1380000","0","1595760311","0","23219","1","0","0"
"2020-10-16 00:02:03","1380000","0","1597124368","1364057","23228","9","0","0"
"2020-10-17 00:02:02","1380000","0","1598004575","880207","23244","16","0","0"
"2020-10-18 00:02:03","1380000","0","1599077554","1072979","23246","2","0","0"
"2020-10-19 00:02:03","1380000","0","1600114929","1037375","23249","3","0","0"
"2020-10-20 00:02:02","1380000","0","1600955761","840832","23261","12","0","0"
"2020-10-21 00:02:02","1380000","0","1601765689","809928","23271","10","0","0"
"2020-10-22 00:02:02","1380000","0","1602511685","745996","23276","5","0","0"
"2020-10-23 00:02:03","1380000","0","1603349409","837724","23290","14","0","0"
"2020-10-24 00:02:03","1380000","0","1604202835","853426","23306","16","0","0"
"2020-10-25 00:02:03","1390000","10000","1604869510","666675","23312","6","0","0"
"2020-10-26 00:02:03","1390000","0","1605947902","1078392","23313","1","0","0"
"2020-10-27 00:02:02","1390000","0","1606663615","715713","23318","5","0","0"
"2020-10-28 00:02:02","1390000","0","1607380179","716564","23325","7","0","0"
"2020-10-29 00:02:02","1390000","0","1608126536","746357","23343","18","0","0"
"2020-10-30 00:02:02","1390000","0","1608889069","762533","23353","10","","0"
"2020-10-31 00:02:02","1390000","0","1609635284","746215","23365","12","0","0"
"2020-11-01 00:02:02","1390000","0","1610416834","781550","23341","-24","0","0"
"2020-11-02 00:02:01","1390000","0","1611401126","984292","23351","10","","0"
"2020-11-03 00:02:02","1390000","0","1612277844","876718","23362","11","0","0"
"2020-11-04 00:02:02","1390000","0","1613341761","1063917","23365","3","","0"
"2020-11-05 00:02:04","1390000","0","1614062371","720610","23375","10","0","0"
"2020-11-06 00:02:02","1390000","0","1614937884","875513","23386","11","","0"
"2020-11-07 00:02:03","1390000","0","1615667805","729921","23400","14","0","0"
"2020-11-08 00:02:03","1400000","10000","1616660853","993048","23403","3","0","0"
"2020-11-09 00:02:04","1400000","0","1617554446","893593","23404","1","0","0"
"2020-11-10 00:02:03","1400000","0","1618339388","784942","23409","5","0","0"
"2020-11-11 00:02:03","1400000","0","1619083391","744003","23418","9","0","0"
"2020-11-12 00:02:02","1400000","0","1619831782","748391","23426","8","","0"
"2020-11-13 00:02:02","1400000","0","1620491488","659706","23435","9","","0"
"2020-11-14 00:02:01","1400000","0","1621238128","746640","23448","13","","0"
"2020-11-15 00:02:02","1400000","0","1622105770","867642","23449","1","","0"
"2020-11-16 00:02:03","1400000","0","1623018346","912576","23451","2","","0"
"2020-11-17 00:02:02","1400000","0","1623766848","748502","23457","6","","0"
"2020-11-18 00:02:02","1400000","0","1624594833","827985","23464","7","","0"
"2020-11-19 00:02:02","1400000","0","1625411847","817014","23477","13","","0"
"2020-11-20 00:02:02","1400000","0","1626240725","828878","23488","11","","0"
"2020-11-21 00:02:02","1400000","0","1627144675","903950","23499","11","","0"
"2020-11-22 00:02:02","1410000","10000","1628126650","981975","23500","1","","0"
"2020-11-23 00:02:02","1410000","0","1629186789","1060139","23505","5","","0"
"2020-11-24 00:02:02","1410000","0","1630213327","1026538","23510","5","","0"
"2020-11-25 00:02:01","1410000","0","1631072201","858874","23527","17","","0"
"2020-11-26 00:02:02","1410000","0","1631966163","893962","23528","1","","0"
"2020-11-27 00:02:02","1410000","0","1632827882","861719","23545","17","","0"
"2020-11-28 00:02:02","1410000","0","1633658693","830811","23554","9","","0"
"2020-11-29 00:02:01","1410000","0","1634529327","870634","23561","7","","0"
"2020-11-30 00:02:02","1410000","0","1635488736","959409","23564","3","","0"
"2020-12-01 00:02:02","1410000","0","1636228538","739802","23574","10","","0"
"2020-12-02 00:02:03","1410000","0","1637033019","804481","23589","15","","0"
"2020-12-03 00:02:02","1410000","0","1637845472","812453","23598","9","","0"
"2020-12-04 00:02:02","1410000","0","1638766027","920555","23610","12","","0"
"2020-12-05 00:02:04","1410000","0","1639626552","860525","23627","17","","0"
"2020-12-06 00:02:02","1420000","10000","1640675098","1048546","23631","4","","0"
"2020-12-07 00:02:02","1420000","0","1641747759","1072661","23638","7","","0"
"2020-12-08 00:02:02","1420000","0","1642633354","885595","23650","12","","0"
"2020-12-09 00:02:02","1420000","0","1643594368","961014","23655","5","","0"
"2020-12-10 00:02:02","1420000","0","1644610452","1016084","23666","11","","0"
"2020-12-11 00:02:02","1420000","0","1645610248","999796","23673","7","","0"
"2020-12-12 00:02:02","1420000","0","1646622753","1012505","23687","14","","0"
"2020-12-13 00:02:02","1420000","0","1647948913","1326160","23692","5","","0"
"2020-12-14 00:02:03","1420000","0","1649146568","1197655","23694","2","","0"
"2020-12-15 00:02:03","1430000","10000","1650244721","1098153","23701","7","","0"
"2020-12-16 00:02:02","1430000","0","1651259897","1015176","23709","8","","0"
"2020-12-17 00:02:03","1430000","0","1652278401","1018504","23716","7","","0"
"2020-12-18 00:02:02","1430000","0","1653641065","1362664","23733","17","","0"
"2020-12-19 00:02:03","1430000","0","1655009497","1368432","23745","12","","0"
"2020-12-20 00:02:02","1440000","10000","1656737005","1727508","23751","6","","0"
"2020-12-21 00:02:03","1440000","0","1658487068","1750063","23756","5","","0"
"2020-12-22 00:02:02","1440000","0","1660088793","1601725","23772","16","","0"
"2020-12-23 00:02:02","1440000","0","1661728271","1639478","23787","15","","0"
"2020-12-24 00:02:03","1450000","10000","1663430724","1702453","23798","11","","0"
"2020-12-25 00:02:03","1450000","0","1665206826","1776102","23808","10","","0"
"2020-12-26 00:02:02","1450000","0","1667170605","1963779","23825","17","","0"
"2020-12-27 00:02:02","1460000","10000","1669002016","1831411","23826","1","","0"
"2020-12-28 00:02:03","1460000","0","1670614750","1612734","23832","6","","0"
"2020-12-29 00:02:02","1460000","0","1671997904","1383154","23838","6","","0"
"2020-12-30 00:02:02","1470000","10000","1673420635","1422731","23841","3","","0"
"2020-12-31 00:02:02","1470000","0","1674777802","1357167","23844","3","","0"
"2021-01-01 00:02:02","1470000","0","1675801871","1024069","23848","4","","0"
"2021-01-02 00:02:03","1470000","0","1676828632","1026761","23851","3","","0"
"2021-01-03 00:02:03","1470000","0","1677928980","1100348","23852","1","","0"
"2021-01-04 00:02:03","1470000","0","1678943330","1014350","23858","6","","0"
"2021-01-05 00:02:04","1470000","0","1679795350","852020","23863","5","","0"
"2021-01-06 00:02:02","1470000","0","1680546296","750946","23872","9","","0"
"2021-01-07 00:02:01","1470000","0","1681282260","735964","23876","4","","0"
"2021-01-08 00:02:02","1470000","0","1682071209","788949","23886","10","","0"
"2021-01-09 00:02:01","1480000","10000","1682857274","786065","23898","12","","0"
"2021-01-10 00:02:02","1480000","0","1683763054","905780","23900","2","","0"
"2021-01-11 00:02:02","1480000","0","1684634700","871646","23904","4","","0"
"2021-01-12 00:02:02","1480000","0","1685427788","793088","23907","3","","0"
"2021-01-13 00:02:02","1480000","0","1686121554","693766","23914","7","","0"
"2021-01-14 00:02:01","1480000","0","1686754360","632806","23924","10","","0"
"2021-01-15 00:02:02","1480000","0","1687394737","640377","23933","9","","0"
"2021-01-16 00:02:02","1480000","0","1688013201","618464","23945","12","","0"
"2021-01-17 00:02:01","1480000","0","1688621295","608094","23950","5","","0"
"2021-01-18 00:02:03","1480000","0","1689412052","790757","23954","4","","0"
"2021-01-19 00:02:02","1480000","0","1689974096","562044","23963","9","","0"
"2021-01-20 00:02:01","1480000","0","1690560912","586816","23968","5","","0"
"2021-01-21 00:02:02","1480000","0","1691195469","634557","23975","7","","0"
"2021-01-22 00:02:01","1480000","0","1691805031","609562","23983","8","","0"
"2021-01-23 00:02:02","1480000","0","1692575285","770254","23992","9","","0"
"2021-01-24 00:02:01","1480000","0","1693449312","874027","23997","5","","0"
"2021-01-25 00:02:02","1480000","0","1694366145","916833","24004","7","","0"
"2021-01-26 00:02:02","1480000","0","1695120545","754400","24013","9","","0"
"2021-01-27 00:02:02","1480000","0","1695909341","788796","24019","6","","0"
"2021-01-28 00:02:02","1490000","10000","1696724129","814788","24025","6","","0"
"2021-01-29 00:02:02","1490000","0","1697660208","936079","24037","12","","0"
"2021-01-30 00:02:02","1490000","0","1698517299","857091","24046","9","","0"
"2021-01-31 00:02:02","1490000","0","1699471287","953988","24049","3","","0"
"2021-02-01 00:02:02","1490000","0","1700489727","1018440","24055","6","","0"
"2021-02-02 00:02:02","1490000","0","1701460020","970293","24060","5","","0"
"2021-02-03 00:02:02","1490000","0","1702326631","866611","24071","11","","0"
"2021-02-04 00:02:02","1490000","0","1703270083","943452","24082","11","","0"
"2021-02-05 00:02:02","1490000","0","1704176750","906667","24096","14","","0"
"2021-02-06 00:02:02","1490000","0","1705164188","987438","24110","14","","0"
"2021-02-07 00:02:02","1490000","0","1706236325","1072137","24114","4","","0"
"2021-02-08 00:02:02","1500000","10000","1707451549","1215224","24120","6","","0"
"2021-02-09 00:02:02","1500000","0","1708573389","1121840","24129","9","","0"
"2021-02-10 00:02:02","1500000","0","1709847810","1274421","24140","11","","0"
"2021-02-11 00:02:02","1500000","0","1711032823","1185013","24155","15","","0"
"2021-02-12 00:02:01","1500000","0","1712725203","1692380","24161","6","","0"
"2021-02-13 00:02:02","1500000","0","1714173124","1447921","24173","12","","0"
"2021-02-14 00:02:02","1510000","10000","1716035282","1862158","24178","5","","0"
"2021-02-15 00:02:02","1510000","0","1718052507","2017225","24186","8","","0"
"2021-02-16 00:02:02","1510000","0","1720421447","2368940","24195","9","","0"
"2021-02-17 00:02:01","1520000","10000","1722604796","2183349","24200","5","","0"
"2021-02-18 00:02:02","1520000","0","1724661794","2056998","24211","11","","0"
"2021-02-19 00:02:02","1520000","0","1726673219","2011425","24224","13","","0"
"2021-02-20 00:02:02","1530000","10000","1728369953","1696734","24239","15","","0"
"2021-02-21 00:02:02","1530000","0","1730095419","1725466","24244","5","","0"
"2021-02-22 00:02:02","1530000","0","1731630304","1534885","24249","5","","0"
"2021-02-23 00:02:02","1530000","0","1733071859","1441555","24262","13","","0"
"2021-02-24 00:02:02","1530000","0","1734584771","1512912","24267","5","","0"
"2021-02-25 00:02:01","1540000","10000","1736012279","1427508","24274","7","","0"
"2021-02-26 00:02:02","1540000","0","1737600458","1588179","24286","12","","0"
"2021-02-27 00:02:01","1540000","0","1739323466","1723008","24291","5","","0"
"2021-02-28 00:02:02","1540000","0","1741050261","1726795","24293","2","","0"
"2021-03-01 00:02:01","1540000","0","1742625673","1575412","24298","5","","0"
"2021-03-02 00:02:02","1550000","10000","1743589019","963346","24307","9","","0"
"2021-03-03 00:02:02","1550000","0","1744525727","936708","24317","10","","0"
"2021-03-04 00:02:01","1550000","0","1745466613","940886","24324","7","","0"
"2021-03-05 00:02:02","1550000","0","1745690137","223524","24337","13","","0"
"2021-03-06 00:02:02","1550000","0","1746636375","946238","24348","11","","0"
"2021-03-07 00:02:02","1550000","0","1747572569","936194","24354","6","","0"
"2021-03-08 00:02:02","1550000","0","1748662933","1090364","24357","3","","0"
"2021-03-09 00:02:01","1550000","0","1749673123","1010190","24367","10","","0"
"2021-03-10 00:02:02","1550000","0","1750558270","885147","24378","11","","0"
"2021-03-11 00:02:01","1550000","0","1751446800","888530","24387","9","","0"
"2021-03-12 00:02:02","1550000","0","1752326698","879898","24391","4","","0"
"2021-03-13 00:02:02","1550000","0","1753222464","895766","24405","14","","0"
"2021-03-14 00:02:02","1550000","0","1754160777","938313","24409","4","","0"
"2021-03-15 00:02:02","1550000","0","1755208618","1047841","24412","3","","0"
"2021-03-16 00:02:01","1550000","0","1756221252","1012634","24416","4","","0"
"2021-03-17 00:02:01","1560000","10000","1757144086","922834","24427","11","","0"
"2021-03-18 00:02:01","1560000","0","1758072554","928468","24435","8","","0"
"2021-03-19 00:02:02","1560000","0","1759048643","976089","24442","7","","0"
"2021-03-20 00:02:01","1560000","0","1759809597","760954","24455","13","","0"
"2021-03-21 00:02:02","1560000","0","1760628553","818956","24462","7","","0"
"2021-03-22 00:02:01","1560000","0","1761359447","730894","24465","3","","0"
"2021-03-23 00:02:02","1560000","0","1762225191","865744","24472","7","","0"
"2021-03-24 00:02:02","1560000","0","1762861645","636454","24485","13","","0"
"2021-03-25 00:02:01","1560000","0","1763575822","714177","24492","7","","0"
"2021-03-26 00:02:02","1560000","0","1764327341","751519","24501","9","","0"
"2021-03-27 00:02:01","1560000","0","1764981206","653865","24511","10","","0"
"2021-03-28 00:02:02","1560000","0","1765819393","838187","24519","8","","0"
"2021-03-29 00:02:02","1560000","0","1766626451","807058","24524","5","","0"
"2021-03-30 00:02:01","1560000","0","1767477189","850738","24531","7","","0"
"2021-03-31 00:02:01","1560000","0","1768175006","697817","24543","12","","0"
"2021-04-01 00:02:02","1560000","0","1768899940","724934","24557","14","","0"
"2021-04-02 00:02:01","1560000","0","1769626698","726758","24567","10","","0"
"2021-04-03 00:02:01","1560000","0","1770316739","690041","24578","11","","0"
"2021-04-04 00:02:02","1560000","0","1771038339","721600","24586","8","","0"
"2021-04-05 00:02:02","1560000","0","1771945588","907249","24592","6","","0"
"2021-04-06 00:02:02","1560000","0","1772681053","735465","24602","10","","0"
"2021-04-07 00:02:02","1560000","0","1773558696","877643","24617","15","","0"
"2021-04-08 00:02:02","1570000","10000","1774298629","739933","24629","12","","0"
"2021-04-09 00:02:02","1570000","0","1774982129","683500","24635","6","","0"
"2021-04-10 00:02:02","1570000","0","1775643872","661743","24648","13","","0"
"2021-04-11 00:02:03","1570000","0","1776346493","702621","24651","3","","0"
"2021-04-12 00:02:01","1570000","0","1777123754","777261","24652","1","","0"
"2021-04-13 00:02:02","1570000","0","1777745530","621776","24665","13","","0"
"2021-04-14 00:02:02","1570000","0","1778619556","874026","24673","8","","0"
"2021-04-15 00:02:02","1570000","0","1779285980","666424","24684","11","","0"
"2021-04-16 00:02:03","1570000","0","1779963742","677762","24694","10","","0"
"2021-04-17 00:02:03","1570000","0","1780556612","592870","24708","14","","0"
"2021-04-18 00:02:02","1570000","0","1781231237","674625","24711","3","","0"
"2021-04-19 00:02:03","1570000","0","1781822818","591581","24716","5","","0"
"2021-04-20 00:02:02","1570000","0","1782571232","748414","24725","9","","0"
"2021-04-21 00:02:01","1570000","0","1783208347","637115","24738","13","","0"
"2021-04-22 00:02:01","1570000","0","1783842017","633670","24746","8","","0"
"2021-04-23 00:02:02","1570000","0","1784495802","653785","24759","13","","0"
"2021-04-24 00:02:02","1570000","0","1785225255","729453","24768","9","","0"
"2021-04-25 00:02:02","1570000","0","1785942661","717406","24772","4","","0"
"2021-04-26 00:02:03","1570000","0","1786688500","745839","24777","5","","0"
"2021-04-27 00:02:01","1570000","0","1787367654","679154","24783","6","","0"
"2021-04-28 00:02:02","1570000","0","1788233659","866005","24793","10","","0"
"2021-04-29 00:02:02","1570000","0","1788919013","685354","24804","11","","0"
"2021-04-30 00:02:01","1570000","0","1789697387","778374","24811","7","","0"
"2021-05-01 00:02:03","1570000","0","1790674839","977452","24820","9","","0"
"2021-05-02 00:02:02","1580000","10000","1791452534","777695","24827","7","","0"
"2021-05-03 00:02:03","1580000","0","1792174013","721479","24829","2","","0"
"2021-05-04 00:02:02","1580000","0","1792689519","515506","24829","0","","0"
"2021-05-05 00:02:02","1580000","0","1793439896","750377","24831","2","","0"
"2021-05-06 00:02:02","1580000","0","1794069661","629765","24837","6","","0"
"2021-05-07 00:02:03","1580000","0","1794665653","595992","24840","3","","0"
"2021-05-08 00:02:03","1580000","0","1795109866","444213","24846","6","","0"
"2021-05-09 00:02:01","1580000","0","1795612222","502356","24848","2","","0"
"2021-05-10 00:02:03","1580000","0","1796196557","584335","24849","1","","0"
"2021-05-11 00:02:02","1580000","0","1796840519","643962","24852","3","","0"
"2021-05-12 00:02:03","1580000","0","1797380014","539495","24860","8","","0"
"2021-05-13 00:02:02","1580000","0","1797978578","598564","24873","13","","0"
"2021-05-14 00:02:03","1580000","0","1798620100","641522","24881","8","","0"
"2021-05-15 00:02:02","1580000","0","1799257019","636919","24892","11","","0"
"2021-05-16 00:02:03","1580000","0","1799990851","733832","24895","3","","0"
"2021-05-17 00:02:02","1580000","0","1800808143","817292","24898","3","","0"
"2021-05-18 00:02:03","1580000","0","1801631847","823704","24903","5","","0"
"2021-05-19 00:02:02","1580000","0","1802298290","666443","24914","11","","0"
"2021-05-20 00:02:02","1580000","0","1802974701","676411","24917","3","","0"
"2021-05-21 00:02:02","1580000","0","1803570641","595940","24926","9","","0"
"2021-05-22 00:02:02","1580000","0","1804169752","599111","24936","10","","0"
"2021-05-23 00:02:03","1580000","0","1804799278","629526","24939","3","","0"
"2021-05-24 00:02:03","1580000","0","1805545136","745858","24940","1","","0"
"2021-05-25 00:02:03","1580000","0","1806104534","559398","24953","13","","0"
"2021-05-26 00:02:02","1580000","0","1806839787","735253","24959","6","","0"
"2021-05-27 00:02:02","1580000","0","1807355232","515445","24965","6","","0"
"2021-05-28 00:02:03","1580000","0","1807999040","643808","24975","10","","0"
"2021-05-29 00:02:03","1580000","0","1808706392","707352","24986","11","","0"
"2021-05-30 00:02:03","1580000","0","1809465411","759019","24988","2","","0"
"2021-05-31 00:02:02","1590000","10000","1810323481","858070","24990","2","","0"
"2021-06-01 00:02:02","1590000","0","1810944820","621339","24995","5","","0"
"2021-06-02 00:02:01","1590000","0","1811592777","647957","25006","11","","0"
"2021-06-03 00:02:02","1590000","0","1812077205","484428","25015","9","","0"
"2021-06-04 00:02:02","1590000","0","1812571954","494749","25027","12","","0"
"2021-06-05 00:02:02","1590000","0","1813040531","468577","25037","10","","0"
"2021-06-06 00:02:02","1590000","0","1813548700","508169","25038","1","","0"
"2021-06-07 00:02:01","1590000","0","1814099356","550656","25039","1","","0"
"2021-06-08 00:02:01","1590000","0","1814644017","544661","25042","3","","0"
"2021-06-09 00:02:01","1590000","0","1815057750","413733","25054","12","","0"
"2021-06-10 00:02:01","1590000","0","1815488771","431021","25063","9","","0"
"2021-06-11 00:02:02","1590000","0","1815893803","405032","25078","15","","0"
"2021-06-12 00:02:02","1590000","0","1816349029","455226","25087","9","","0"
"2021-06-13 00:02:02","1590000","0","1816836122","487093","25092","5","","0"
"2021-06-14 00:02:01","1590000","0","1817410543","574421","25094","2","","0"
"2021-06-15 00:02:02","1590000","0","1817996317","585774","25101","7","","0"
"2021-06-16 00:02:02","1590000","0","1818435791","439474","25110","9","","0"
"2021-06-17 00:02:02","1590000","0","1818899304","463513","25117","7","","0"
"2021-06-18 00:02:02","1590000","0","1819357218","457914","25124","7","","0"
"2021-06-19 00:02:02","1590000","0","1819840405","483187","25138","14","","0"
"2021-06-20 00:02:02","1590000","0","1820314677","474272","25142","4","","0"
"2021-06-21 00:02:02","1590000","0","1820868036","553359","25145","3","","0"
"2021-06-22 00:02:02","1590000","0","1821399450","531414","25152","7","","0"
"2021-06-23 00:02:02","1590000","0","1821812153","412703","25158","6","","0"
"2021-06-24 00:02:02","1590000","0","1822239852","427699","25166","8","","0"
"2021-06-25 00:02:02","1590000","0","1822730286","490434","25175","9","","0"
"2021-06-26 00:02:02","1590000","0","1823169724","439438","25181","6","","0"
"2021-06-27 00:02:02","1590000","0","1823631414","461690","25186","5","","0"
"2021-06-28 00:02:02","1590000","0","1824185391","553977","25188","2","","0"
"2021-06-29 00:02:02","1590000","0","1824733617","548226","25194","6","","0"
"2021-06-30 00:02:02","1590000","0","1825136616","402999","25202","8","","0"
"2021-07-01 00:02:02","1590000","0","1825636140","499524","25207","5","","0"
"2021-07-02 00:02:02","1590000","0","1826060297","424157","25223","16","","0"
"2021-07-03 00:02:03","1590000","0","1826551451","491154","25236","13","","0"
"2021-07-04 00:02:02","1590000","0","1827069789","518338","25238","2","","0"
"2021-07-05 00:02:02","1590000","0","1827622017","552228","25239","1","","0"
"2021-07-06 00:02:02","1590000","0","1827862216","240199","25245","6","","0"
"2021-07-07 00:02:02","1590000","0","1828579109","716893","25260","15","","0"
"2021-07-08 00:02:03","1590000","0","1829000889","421780","25268","8","","0"
"2021-07-09 00:02:02","1590000","0","1829437237","436348","25283","15","","0"
"2021-07-10 00:02:02","1590000","0","1829898067","460830","25299","16","","0"
"2021-07-11 00:02:02","1590000","0","1830349567","451500","25305","6","","0"
"2021-07-12 00:02:02","1590000","0","1830833487","483920","25308","3","","0"
"2021-07-13 00:02:01","1590000","0","1831240712","407225","25314","6","","0"
"2021-07-14 00:02:02","1590000","0","1831773258","532546","25322","8","","0"
"2021-07-15 00:02:02","1590000","0","1832193923","420665","25333","11","","0"
"2021-07-16 00:02:02","1600000","10000","1832635805","441882","25346","13","","0"
"2021-07-17 00:02:01","1600000","0","1833056671","420866","25359","13","","0"
"2021-07-18 00:02:01","1600000","0","1833493879","437208","25361","2","","0"
"2021-07-19 00:02:02","1600000","0","1834004060","510181","25365","4","","0"
"2021-07-20 00:02:02","1600000","0","1834570992","566932","25369","4","","0"
"2021-07-21 00:02:01","1600000","0","1835049205","478213","25379","10","","0"
"2021-07-22 00:02:01","1600000","0","1835540729","491524","25395","16","","0"
"2021-07-23 00:02:02","1600000","0","1836080189","539460","25402","7","","0"
"2021-07-24 00:02:01","1600000","0","1836686149","605960","25408","6","","0"
"2021-07-25 00:02:02","1600000","0","1837253885","567736","25410","2","","0"
"2021-07-26 00:02:01","1600000","0","1837777841","523956","25411","1","","0"
"2021-07-27 00:02:01","1600000","0","1838312400","534559","25419","8","","0"
"2021-07-28 00:02:02","1600000","0","1838808597","496197","25429","10","","0"
"2021-07-29 00:02:01","1600000","0","1839308456","499859","25436","7","","0"
"2021-07-30 00:02:02","1600000","0","1839633592","325136","25449","13","","0"
"2021-07-31 00:02:02","1600000","0","1840143252","509660","25458","9","","0"
"2021-08-01 00:02:01","1600000","0","1840633966","490714","25459","1","","0"
"2021-08-02 00:02:01","1600000","0","1841190833","556867","25464","5","","0"
"2021-08-03 00:02:01","1600000","0","1841748783","557950","25476","12","","0"
"2021-08-04 00:02:02","1600000","0","1842333576","584793","25482","6","","0"
"2021-08-05 00:02:01","1600000","0","1842772203","438627","25486","4","","0"
"2021-08-06 00:02:01","1600000","0","1843261999","489796","25492","6","","0"
"2021-08-07 00:02:01","1600000","0","1843608512","346513","25505","13","","0"
"2021-08-08 00:02:02","1600000","0","1844308152","699640","25508","3","","0"
"2021-08-09 00:02:01","1600000","0","1844936577","628425","25511","3","","0"
"2021-08-10 00:02:02","1600000","0","1845659175","722598","25511","0","","0"
"2021-08-11 00:02:02","1600000","0","1845659175","0","25517","6","","0"
"2021-08-12 00:02:02","1600000","0","1846872638","1213463","25534","17","","0"
"2021-08-13 00:02:01","1600000","0","1847494300","621662","25549","15","","0"
"2021-08-14 00:02:02","1600000","0","1848101563","607263","25560","11","","0"
"2021-08-15 00:02:02","1600000","0","1848752457","650894","25565","5","","0"
"2021-08-16 00:02:03","1610000","10000","1849451215","698758","25571","6","","0"